Presure
297 296 321 312 289 280 245 235 230 331 311 244 269 262 244 239 216 217 220 214 208 194 196 194 205 196 208 201 209 209 222 220 209 224 223 219 192 199 208 216 198 231 230 233 241 230 203
260 307 330 243 282 277 248 234 228 252 309 282 272 258 247 237 163 155 126 213 173 206 189 196 214 194 206 218 193 199 213 212 215 231 225 209 206 211 204 212 222 247 246 282 282 236 227
308 330 317 296 284 265 255 236 227 229 293 294 268 261 250 238 201 215 219 217 214 210 205 206 196 202 214 209 214 209 206 211 225 192 226 232 211 204 197 199 232 237 279 278 278 284 236
339 310 308 298 284 265 251 241 220 225 228 284 279 266 236 248 238 222 222 217 212 207 207 206 206 214 201 206 222 218 190 220 229 174 208 196 232 198 198 200 231 239 276 271 267 274 275
328 324 310 298 279 271 250 250 235 224 219 227 281 277 254 244 235 183 144 144 224 210 206 210 214 211 214 215 222 214 201 195 209 202 220 220 225 222 211 204 219 166 266 263 260 257 260
334 296 311 307 288 271 266 249 249 227 220 219 222 240 279 253 245 228 230 225 228 228 143 225 210 217 219 220 224 215 215 214 216 197 200 217 229 231 201 216 225 267 269 252 247 245 252
280 271 270 284 281 299 276 240 245 246 224 218 213 218 225 239 279 254 247 237 229 216 222 211 207 213 213 211 205 217 224 218 219 219 215 216 223 220 208 220 226 265 267 257 251 249 249
271 266 264 229 229 260 285 247 271 248 245 221 218 218 211 212 222 234 287 289 269 240 230 226 222 218 226 218 222 221 221 211 219 216 225 225 235 202 210 215 227 238 249 241 239 237 240
255 245 255 251 265 261 256 261 251 257 232 240 236 220 224 218 211 205 214 213 235 280 295 299 262 233 234 231 224 223 230 223 229 209 221 229 229 211 211 220 229 241 252 237 236 237 247
240 245 243 229 229 252 238 254 257 266 241 253 241 212 230 229 221 217 204 223 213 216 216 217 221 239 253 278 256 240 237 245 239 231 238 231 212 209 217 225 235 243 249 237 234 241 243
262 233 227 259 252 233 231 245 232 232 222 224 221 246 228 236 216 210 224 214 187 191 206 215 221 242 248 277 268 255 251 248 239 245 232 229 208 216 225 231 237 249 244 230 233 237 242
243 250 356 495 500 512 436 288 250 245 241 234 226 220 243 217 226 221 230 222 225 198 212 205 220 250 263 268 260 261 260 253 251 241 229 220 175 232 240 240 252 193 238 229 232 233 238
256 502 477 541 579 570 503 528 484 266 248 246 245 234 228 220 218 226 219 214 167 213 213 216 236 262 273 263 258 248 249 249 242 240 230 236 245 249 160 263 250 180 229 231 238 244 266
447 464 534 596 550 541 474 506 486 467 266 255 248 242 235 230 232 227 233 199 225 218 233 224 257 286 278 259 248 248 241 241 228 240 264 268 278 279 284 345 360 278 243 265 265 272 273
467 482 647 557 531 458 480 494 547 612 382 357 300 271 240 234 233 239 238 233 226 223 248 242 293 269 248 239 239 239 229 245 260 284 395 383 375 362 360 359 327 338 342 347 193 343 333
458 505 610 481 510 470 464 488 566 429 359 335 340 307 285 246 243 152 240 232 235 248 242 282 270 242 235 229 223 251 251 438 419 393 393 382 373 361 372 379 352 343 323 332 341 339 339
457 517 526 431 437 497 477 533 431 428 347 333 307 343 324 279 259 251 245 239 246 263 273 255 238 231 215 235 208 365 391 398 377 366 175 340 123 332 348 351 371 387 352 330 347 343 350
458 508 488 489 497 512 432 442 464 380 318 333 299 312 290 327 288 280 270 265 267 274 245 237 228 211 243 212 347 352 352 348 348 330 314 323 332 348 345 346 382 382 380 405 273 261 255
463 542 440 448 443 478 407 359 335 325 314 293 306 301 300 339 323 314 297 283 279 244 235 228 208 238 199 329 251 269 313 313 312 310 325 285 275 276 275 278 270 268 259 259 249 253 223
475 470 434 430 460 370 353 346 329 318 316 299 276 275 289 397 280 285 294 287 241 234 226 207 232 214 302 258 261 200 258 254 264 258 257 258 258 257 256 254 255 246 246 246 244 243 241
485 451 468 403 363 347 339 331 317 316 306 341 291 298 214 277 291 294 287 239 234 226 211 231 227 214 233 215 178 220 238 251 228 242 239 241 194 238 245 258 252 236 242 238 249 233 251
497 452 617 382 377 349 349 332 328 317 293 285 303 287 301 307 303 290 237 234 223 216 224 236 206 244 245 189 227 167 241 249 233 239 231 241 232 228 96 131 232 231 89 234 242 103 257
514 465 371 368 350 355 340 339 317 277 300 285 275 292 316 286 281 230 237 224 209 211 234 215 206 246 250 241 187 251 190 211 243 197 222 238 158 218 234 140 132 127 234 231 246 204 265
524 417 373 372 347 323 322 299 300 293 281 297 299 306 284 289 240 223 229 222 217 230 231 209 214 230 243 244 193 213 238 164 186 187 215 184 158 150 230 233 229 235 173 199 164 248 108
529 400 372 354 347 320 307 292 291 274 309 304 299 285 286 240 241 229 221 211 197 237 222 206 217 221 244 227 247 192 188 198 261 236 136 222 213 164 229 239 234 174 228 206 239 253 253
529 418 391 355 348 308 291 296 290 284 230 306 290 293 251 241 223 226 215 216 238 231 218 217 218 214 225 218 251 242 236 231 229 262 196 234 220 248 239 252 206 248 246 248 204 263 143
550 563 389 351 346 325 295 300 300 293 290 310 297 253 242 237 227 217 209 201 235 230 218 212 209 211 217 218 216 235 233 232 236 221 253 229 230 208 206 249 215 206 222 250 237 236 267
616 626 399 362 345 322 303 290 305 297 330 295 273 243 242 235 227 214 211 233 231 230 228 208 212 204 209 207 210 212 192 204 198 207 210 208 224 217 225 231 191 228 215 209 266 235 194
631 631 393 373 354 320 308 298 301 322 291 304 251 241 239 231 220 206 198 233 226 227 230 212 214 208 207 209 209 207 206 204 206 205 195 207 240 253 247 223 233 224 224 225 213 198 181
Wind_Speed
67 60 50 42 43 43 56 60 56 44 51 49 62 69 80 78 73 75 76 75 71 64 65 65 67 59 59 62 58 60 59 57 57 54 56 59 59 57 56 55 61 51 57 58 64 68 56
56 46 39 50 43 43 53 57 53 44 51 57 62 66 75 75 52 49 38 72 55 70 65 66 70 67 66 64 65 66 65 63 60 52 56 61 61 57 57 57 56 53 56 52 54 69 72
54 40 36 39 42 44 49 54 51 47 45 54 60 64 70 71 60 69 74 74 71 71 67 74 67 72 70 67 66 66 69 65 62 61 57 57 62 61 61 62 55 55 50 52 54 48 73
39 41 38 39 40 45 47 51 50 50 43 41 59 63 57 65 70 69 75 76 74 70 70 70 74 75 73 72 67 68 66 68 66 59 65 59 57 63 64 64 57 56 52 51 52 50 53
38 38 37 39 43 46 47 50 53 50 47 43 49 62 59 63 63 55 49 47 81 70 68 71 74 74 78 77 71 69 70 61 67 64 64 63 61 62 63 63 59 64 54 51 49 53 57
30 35 34 39 44 46 50 49 52 54 53 49 47 45 63 61 64 64 68 72 73 74 47 75 68 71 74 73 74 73 71 74 70 62 65 66 60 60 64 65 60 49 55 57 58 62 62
38 39 37 34 37 52 52 49 52 56 56 55 52 50 48 45 68 68 76 74 73 66 69 68 66 70 72 75 75 75 73 74 71 69 70 65 62 64 70 66 60 52 49 50 55 58 64
44 44 43 47 43 46 46 50 57 58 59 56 57 55 55 53 48 47 65 72 77 74 70 72 76 77 81 79 81 81 77 73 72 71 71 68 62 69 70 64 62 61 53 51 57 64 65
47 49 51 48 54 51 51 51 55 58 57 60 61 58 57 56 55 55 52 50 49 53 57 58 66 74 82 83 83 88 83 76 81 70 71 67 67 72 69 68 67 64 58 60 63 72 66
54 59 57 56 58 58 56 56 56 59 57 63 62 58 59 58 56 57 54 51 50 50 48 53 61 64 71 71 80 88 86 82 75 80 77 68 73 71 71 71 73 68 68 69 68 70 66
64 55 62 68 70 67 65 64 62 62 61 63 59 62 54 60 58 59 56 56 36 41 46 51 57 65 68 62 65 75 80 79 77 79 72 72 73 75 75 81 77 72 77 69 69 69 72
63 65 71 51 48 45 55 79 74 70 64 69 63 61 61 58 61 60 55 52 56 44 53 55 56 60 60 61 64 66 70 75 76 75 71 74 56 80 83 87 87 59 79 71 72 74 64
70 54 50 44 19 17 33 33 45 82 75 75 69 64 62 63 61 56 58 56 36 55 55 53 53 56 54 58 59 62 68 74 75 78 74 79 85 86 49 95 85 55 80 79 80 73 60
59 52 47 17 14 7 29 30 43 51 86 86 71 72 66 66 62 59 56 49 51 57 53 47 54 46 49 52 55 62 67 71 69 78 86 88 92 96 100 61 60 101 88 93 85 77 73
53 51 25 11 8 21 20 23 21 35 56 75 88 86 72 69 63 63 54 48 49 52 49 50 40 36 43 51 56 59 60 68 74 75 38 34 28 35 38 44 53 60 64 55 36 59 58
54 49 13 12 5 16 20 21 24 63 62 65 64 75 86 77 72 31 52 48 48 49 42 39 29 38 44 48 49 59 60 25 24 20 21 16 17 17 23 34 50 51 54 63 58 55 47
51 43 6 17 10 20 17 15 43 58 60 57 57 53 58 81 78 62 55 51 45 42 38 31 36 37 37 44 34 26 18 10 13 15 6 22 6 14 11 7 15 48 49 49 53 46 43
49 38 14 11 15 18 35 45 53 57 53 47 49 55 63 58 66 63 62 49 42 35 34 32 33 32 38 30 14 14 14 18 22 30 29 32 23 17 9 2 14 34 38 40 63 60 57
46 35 12 7 20 27 51 60 56 58 53 41 44 46 45 47 48 49 54 42 35 37 33 29 29 28 20 6 19 25 35 38 45 46 39 69 67 70 69 68 65 66 65 66 66 62 50
43 24 6 17 26 57 58 63 64 57 60 54 50 42 36 30 37 42 41 36 41 38 32 26 17 14 28 13 34 11 58 58 65 60 59 58 59 61 62 64 61 59 49 51 59 58 59
41 20 8 29 41 44 59 47 48 48 43 46 52 42 21 33 36 41 41 46 42 36 30 16 11 8 4 4 12 13 19 58 14 51 48 54 34 45 51 61 53 44 44 41 37 53 38
38 15 24 43 58 51 58 52 44 55 51 44 37 37 32 41 46 46 51 46 41 33 21 15 15 15 13 8 27 12 20 47 30 47 42 61 49 41 14 15 50 44 18 40 34 16 45
37 5 36 39 32 46 49 53 55 45 51 43 43 40 41 52 54 50 49 43 35 32 20 21 18 15 19 18 22 35 20 21 44 15 15 51 20 38 47 23 24 23 37 32 27 25 34
34 16 35 42 35 50 57 42 53 48 42 46 43 43 53 58 58 44 47 43 34 27 23 23 16 9 16 14 12 3 26 17 18 28 39 24 14 20 46 44 44 44 28 25 28 41 8
28 23 30 40 41 53 48 42 39 35 38 38 49 57 61 61 55 49 45 35 24 26 28 25 18 13 16 15 28 15 13 28 32 24 20 28 36 19 42 47 42 31 44 16 40 46 42
25 25 49 43 52 50 42 45 41 40 27 46 60 63 67 60 48 51 42 36 31 30 31 27 22 18 13 17 31 23 14 6 21 28 36 34 2 53 46 51 18 50 49 54 25 36 17
26 14 47 43 54 57 51 50 52 52 53 53 62 69 64 61 53 45 36 25 33 32 33 29 27 23 17 16 19 31 19 25 11 28 39 30 36 12 22 45 37 13 9 45 30 23 29
26 23 54 50 62 57 51 46 57 47 50 63 72 67 65 59 54 45 38 37 36 34 35 32 30 27 22 21 22 20 28 26 21 20 15 19 38 27 13 20 30 23 17 25 35 30 40
25 22 57 51 60 58 54 50 51 55 62 66 72 67 62 56 52 35 31 40 39 38 36 34 31 30 26 22 19 20 21 21 20 22 31 19 24 37 35 16 22 22 24 26 29 37 39
Wind_Direction
295 294 289 272 265 260 260 266 271 238 229 236 225 227 234 236 239 242 243 246 249 246 252 254 263 250 257 257 260 263 267 260 255 260 260 257 251 250 252 256 247 253 248 245 245 241 239
295 287 275 280 262 259 257 265 270 268 231 227 224 227 229 237 247 248 255 245 251 248 247 255 262 255 259 265 252 256 262 256 258 262 259 256 256 254 252 254 259 261 256 251 245 243 239
294 278 266 263 255 260 256 260 265 265 241 230 228 231 231 234 240 240 243 244 246 249 249 253 254 259 267 258 264 257 258 258 265 251 261 262 257 256 253 252 267 265 257 250 244 240 240
280 279 265 255 252 255 256 253 259 260 258 241 233 230 236 236 233 236 240 243 244 246 249 252 256 263 258 258 264 260 255 262 266 256 262 255 265 255 256 257 270 265 253 250 247 241 239
282 273 262 254 254 247 254 254 253 253 258 252 240 236 239 235 237 244 253 253 245 243 247 251 255 258 262 262 263 257 258 257 262 261 264 266 265 262 258 261 267 243 252 244 238 241 238
286 280 271 259 249 251 251 255 251 251 251 253 247 246 237 239 239 238 241 244 246 249 251 252 252 257 259 262 261 257 257 259 261 259 261 265 268 269 262 264 269 256 243 240 238 239 237
298 295 290 281 270 251 250 255 253 249 247 248 253 248 245 247 240 242 239 242 244 243 247 248 251 253 254 257 259 259 258 259 259 263 263 264 266 266 262 266 275 270 249 244 236 235 241
304 299 294 285 273 274 263 258 251 249 248 246 248 246 251 252 241 247 249 247 246 244 248 251 253 255 257 257 258 260 258 261 261 262 263 264 266 264 268 272 273 279 256 247 241 241 242
308 309 300 293 287 276 268 262 256 252 249 246 244 245 244 245 250 252 245 248 248 250 250 254 256 254 256 255 257 261 261 260 262 262 263 265 266 265 267 270 272 275 256 248 242 243 238
316 310 302 293 288 281 269 266 259 254 249 248 245 252 244 244 242 247 254 248 250 251 252 253 260 260 259 258 256 257 260 264 263 261 261 264 264 268 270 272 271 273 256 247 246 246 241
316 298 297 294 286 280 278 265 260 255 252 252 249 245 240 243 243 246 245 248 260 263 256 256 260 264 266 262 257 257 259 261 261 259 264 263 267 267 267 267 266 266 255 252 250 248 246
310 308 306 293 285 276 261 257 256 255 251 248 246 247 242 243 241 243 247 251 250 265 258 260 264 268 268 259 258 261 264 263 264 263 265 267 263 270 268 268 269 263 255 254 250 248 247
319 312 304 305 278 305 258 242 224 244 248 250 246 246 242 243 243 242 241 249 253 254 258 262 271 270 259 258 260 262 263 266 266 268 273 271 271 268 256 265 261 259 256 255 252 253 251
320 317 319 264 270 252 248 233 213 202 239 244 244 243 243 243 245 244 245 256 252 251 265 265 272 267 261 264 264 263 263 266 275 275 275 274 273 270 266 250 245 254 252 251 251 248 245
326 326 305 265 241 254 232 231 224 229 194 223 231 238 240 241 242 246 244 249 249 258 267 270 265 260 260 262 266 268 278 280 281 281 275 270 256 250 245 238 234 234 231 226 231 225 225
332 336 290 298 192 214 222 208 220 184 201 221 223 223 230 236 242 240 244 247 251 263 262 260 256 253 262 266 281 286 290 296 282 282 285 271 249 250 241 239 232 225 219 214 213 209 209
336 340 258 305 264 193 201 194 174 172 185 208 218 221 230 229 233 239 244 245 252 255 253 238 248 258 270 284 282 319 342 33 81 95 161 60 111 40 18 312 234 212 218 217 196 191 177
338 340 300 251 235 183 159 162 164 170 194 192 213 207 223 228 230 237 239 240 239 241 222 234 248 262 286 286 322 356 36 67 82 87 78 60 46 26 324 120 213 178 187 194 140 145 153
341 342 311 207 174 173 150 145 157 169 186 193 191 204 215 228 225 221 225 223 223 205 219 232 252 281 262 137 342 93 82 82 90 80 69 96 98 100 104 108 118 126 137 140 151 154 161
343 335 270 173 160 150 149 155 166 176 186 183 201 208 216 203 202 209 207 200 192 204 215 233 266 259 138 149 108 115 99 98 103 109 109 110 115 121 124 128 126 142 145 151 159 166 171
344 319 257 169 171 171 169 172 178 178 176 170 194 204 222 184 195 194 183 184 192 201 216 221 234 277 269 181 241 38 124 111 108 116 120 120 123 130 128 107 118 145 144 162 154 176 173
345 307 332 164 167 175 172 175 163 157 168 173 183 168 173 181 177 175 180 184 198 205 199 209 193 185 175 196 144 190 168 129 136 134 142 132 139 146 227 187 138 147 252 165 170 242 183
346 272 177 170 178 162 150 152 153 183 178 178 170 172 176 172 164 178 178 187 196 205 189 189 185 186 189 212 168 160 143 109 145 116 111 144 183 142 142 188 201 211 148 164 172 190 193
345 196 187 177 166 163 157 178 167 173 180 177 172 170 167 164 176 179 179 188 192 185 182 190 190 195 157 194 188 151 172 194 171 147 146 181 175 188 162 167 172 160 172 172 204 194 219
344 194 191 185 173 169 166 175 180 184 165 172 168 166 164 175 175 175 185 199 201 179 182 187 188 187 160 155 194 194 204 148 163 179 216 171 157 188 171 174 180 185 189 136 192 203 196
341 199 191 182 175 178 187 187 185 169 188 174 167 167 169 174 177 179 191 189 173 182 186 186 182 186 178 166 197 195 215 220 179 175 173 186 132 178 181 184 126 182 196 199 170 204 233
338 300 185 184 183 179 188 190 184 183 174 175 169 168 173 174 179 186 196 188 175 185 189 188 187 187 188 174 159 192 170 198 197 191 198 202 187 170 157 198 199 164 191 221 220 199 218
330 320 193 189 182 183 186 190 191 183 181 172 167 176 177 177 178 189 198 182 181 186 191 189 187 190 189 190 180 165 191 165 182 152 145 174 193 212 225 195 185 206 196 186 225 220 198
327 318 194 194 182 187 187 188 188 181 173 173 176 180 180 179 183 196 192 183 188 190 191 195 193 192 191 196 198 188 181 176 173 171 187 170 220 228 233 229 238 224 231 226 232 200 205